SCOUT A DEB

基本信息
目录编号:
2141
目录名称:
SCOUT A DEB
国际标识:
1966-005D
轨道中心:
EARTH
物体状态:
在轨
发射日期:
1966-01-28 UTC
轨道信息
数据来源: 国际轨道数据
星历时间: 2026-07-12T00:30:29+0800
半长轴: 7251.526km
偏心率: 0.0116489
轨道倾角: 90.246°
近地点辐角: 347.447°
升交点赤经: 259.267°
平近点角: 12.382°
近地点: 788.916km
远地点: 957.862km
周期: 102.424分钟
每日圈数: 14.059139
详细信息
发射场:
AFWTR
轨道高度:
LEO
数据来源:
AOE Integration Group
参考系:
TEME
时间系统:
UTC
历元类型:
SGP4
2D轨道图
3D轨道图
轨道高度分析图
轨道倾角分析图
轨道综合分析图
查看轨道综合分析图